This is the latest recevied weather packets stored in our database for station/object VK2OB. If no packets are shown the sender has not sent any weather packets the latest 10 day(s).
| Time | Temp. | Humidity | Pressure | Rain* | Wind** | Luminosity | Snow |
|---|---|---|---|---|---|---|---|
| 1777764533 | 23.33° C | 62% | 1022.5 hPa | 0 mm | - | - | - |
| 1777764234 | 22.78° C | 60% | 1022.6 hPa | 0 mm | - | - | - |
| 1777763935 | 22.78° C | 61% | 1022.6 hPa | 0 mm | - | - | - |
| 1777763636 | 22.78° C | 62% | 1022.6 hPa | 0 mm | - | - | - |
| 1777763337 | 22.22° C | 66% | 1022.6 hPa | 0 mm | - | - | - |
| 1777763032 | 22.22° C | 68% | 1022.7 hPa | 0 mm | - | - | - |
| 1777762580 | 21.67° C | 70% | 1022.7 hPa | 0 mm | - | - | - |
| 1777762281 | 21.11° C | 70% | 1022.7 hPa | 0 mm | - | - | - |
| 1777761982 | 21.67° C | 70% | 1022.6 hPa | 0 mm | - | - | - |
| 1777761683 | 21.67° C | 70% | 1022.7 hPa | 0 mm | - | - | - |
| 1777761383 | 20.56° C | 72% | 1022.6 hPa | 0 mm | - | - | - |
| 1777761085 | 20.56° C | 72% | 1022.8 hPa | 0 mm | - | - | - |
| 1777760786 | 20° C | 73% | 1022.7 hPa | 0 mm | - | - | - |
| 1777760487 | 20° C | 73% | 1022.6 hPa | 0 mm | - | - | - |
| 1777760188 | 20° C | 75% | 1022.7 hPa | 0 mm | - | - | - |
| 1777759889 | 19.44° C | 75% | 1022.6 hPa | 0 mm | - | - | - |
| 1777759590 | 19.44° C | 76% | 1022.7 hPa | 0 mm | - | - | - |
| 1777759291 | 19.44° C | 76% | 1022.7 hPa | 0 mm | - | - | - |
| 1777758992 | 19.44° C | 77% | 1022.6 hPa | 0 mm | - | - | - |
| 1777758693 | 18.89° C | 77% | 1022.6 hPa | 0 mm | - | - | - |
| 1777758394 | 18.89° C | 79% | 1022.6 hPa | 0 mm | - | - | - |
| 1777758095 | 18.33° C | 80% | 1022.5 hPa | 0 mm | - | - | - |
| 1777757796 | 18.89° C | 81% | 1022.4 hPa | 0 mm | - | - | - |
| 1777757497 | 18.33° C | 81% | 1022.3 hPa | 0 mm | - | - | - |
| 1777757197 | 18.33° C | 82% | 1022.1 hPa | 0 mm | - | - | - |
* Rain latest hour (hover to see other rain measurements)
** Current wind speed in m/s (hover to see current wind gust speed)